User: anonymous   Login
Location: Chanteloup
(48.8560°N, 2.7390°E)
Time: 10:47:05
(UTC+00:00)
Language:

Spot 2 - Orbit

View from above orbital plane
View from above orbital plane
View from above satellite
View from above satellite

Ground track
Ground track

The orbit data is extracted from the following two-line orbital elements,

1 20436U 90005A   22017.80140678  .00000403  00000-0  71379-4 0  9993
2 20436  98.7300  52.5258 0145453  87.8510 273.9340 14.66808203678593
Epoch (UTC): 17 January 2022 19:14:01
Eccentricity: 0.0145453
inclination: 98.7300°
perigee height: 569 km
apogee height: 774 km
right ascension of ascending node: 52.5258°
argument of perigee: 87.8510°
revolutions per day: 14.66808203
mean anomaly at epoch: 273.9340°
orbit number at epoch: 67859

The dashed part of the orbit path shows where the satellite is in the earth's shadow,  

DLR